Weather History for KEAR - December, 2013

Change the Weather History Date:

Friday, December 27, 2013

  Actual Average Record
Temperature  
Mean Temperature 39 °F 24 °F  
Max Temperature 57 °F 35 °F 65 °F (1928)
Min Temperature 21 °F 14 °F -12 °F (1924)
Degree Days  
Heating Degree Days 26 41  
Month to date heating degree days 1046  
Since 1 July heating degree days 2479  
Cooling Degree Days 0 0  
Month to date cooling degree days 0  
Year to date cooling degree days 871  
Moisture  
Dew Point 21 °F    
Average Humidity 55    
Maximum Humidity 81    
Minimum Humidity 28    
Precipitation  
Precipitation 0.00 in - 0.75 in (1982)
Sea Level Pressure  
Sea Level Pressure 30.16 in    
Wind  
Wind Speed 8 mph (WSW)    
Max Wind Speed 14 mph    
Max Gust Speed 17 mph    
Visibility 10 miles    
Events      
T = Trace of Precipitation, MM = Missing Value Source: NWS Daily Summary

Daily Weather History Graph

Daily Weather History Graph

Search for Another Location

Airport or City:

Trip Planner

Search our weather history database for the weather conditions in past years. The results will help you decide how hot, cold, wet, or windy it might be!

Date:

Astronomy

Dec. 27, 2013 Rise Set
Actual Time 7:59 AM CST 5:15 PM CST
Civil Twilight 7:28 AM CST 5:46 PM CST
Nautical Twilight 6:53 AM CST 6:20 PM CST
Astronomical Twilight 6:20 AM CST 6:54 PM CST
Moon 2:31 AM CST 1:28 PM CST
Length of Visible Light 10h 18m
Length of Day
9h 16m
Waning Crescent, 28% of the Moon is Illuminated
Dec 27
Waning Crescent
Jan 1
New
Jan 7
First Quarter
Jan 15
Full
Jan 23
Last Quarter

Hourly Weather History & Observations

Time (CST) Temp. Windchill Dew Point Humidity Pressure Visibility Wind Dir Wind Speed Gust Speed Precip Events Conditions
12:15 AM 28.4 °F 21.2 °F 17.6 °F 64% 30.24 in 10.0 mi WSW 6.9 mph - N/A   Clear
12:35 AM 28.4 °F 24.6 °F 17.6 °F 64% 30.24 in 10.0 mi WSW 3.5 mph - N/A   Clear
12:55 AM 24.8 °F - 15.8 °F 69% 30.24 in 10.0 mi Calm Calm - N/A   Clear
1:15 AM 24.8 °F 19.1 °F 15.8 °F 69% 30.23 in 10.0 mi SW 4.6 mph - N/A   Clear
1:35 AM 26.6 °F 21.2 °F 19.4 °F 74% 30.23 in 10.0 mi West 4.6 mph - N/A   Clear
1:55 AM 23.0 °F - 15.8 °F 74% 30.23 in 10.0 mi Calm Calm - N/A   Clear
2:15 AM 23.0 °F 17.0 °F 15.8 °F 74% 30.23 in 10.0 mi West 4.6 mph - N/A   Clear
2:35 AM 24.8 °F 17.9 °F 17.6 °F 74% 30.23 in 10.0 mi WSW 5.8 mph - N/A   Clear
2:55 AM 26.6 °F 19.1 °F 19.4 °F 74% 30.23 in 10.0 mi WSW 6.9 mph - N/A   Clear
3:15 AM 33.8 °F 27.0 °F 21.2 °F 60% 30.23 in 10.0 mi WSW 8.1 mph - N/A   Clear
3:35 AM 30.2 °F 21.9 °F 19.4 °F 64% 30.23 in 10.0 mi WSW 9.2 mph - N/A   Clear
3:55 AM 28.4 °F 21.2 °F 17.6 °F 64% 30.23 in 10.0 mi SW 6.9 mph - N/A   Clear
4:15 AM 26.6 °F 18.2 °F 17.6 °F 69% 30.23 in 10.0 mi WSW 8.1 mph - N/A   Clear
4:35 AM 26.6 °F 18.2 °F 19.4 °F 74% 30.22 in 10.0 mi WSW 8.1 mph - N/A   Clear
4:55 AM 28.4 °F 19.1 °F 19.4 °F 69% 30.22 in 10.0 mi WSW 10.4 mph - N/A   Clear
5:15 AM 28.4 °F 20.4 °F 19.4 °F 69% 30.21 in 10.0 mi WSW 8.1 mph - N/A   Clear
5:35 AM 28.4 °F 19.1 °F 21.2 °F 74% 30.21 in 10.0 mi WSW 10.4 mph - N/A   Clear
5:55 AM 26.6 °F 18.2 °F 17.6 °F 69% 30.21 in 10.0 mi SW 8.1 mph - N/A   Clear
6:15 AM 24.8 °F 15.3 °F 17.6 °F 74% 30.20 in 10.0 mi SW 9.2 mph - N/A   Clear
6:35 AM 26.6 °F 18.2 °F 17.6 °F 69% 30.21 in 10.0 mi WSW 8.1 mph - N/A   Clear
6:55 AM 23.0 °F 15.8 °F 17.6 °F 80% 30.21 in 10.0 mi SW 5.8 mph - N/A   Clear
7:15 AM 26.6 °F 16.8 °F 19.4 °F 74% 30.21 in 10.0 mi SW 10.4 mph - N/A   Clear
7:35 AM 28.4 °F 18.5 °F 19.4 °F 69% 30.21 in 10.0 mi WSW 11.5 mph - N/A   Clear
7:55 AM 30.2 °F 21.9 °F 19.4 °F 64% 30.21 in 10.0 mi WSW 9.2 mph - N/A   Clear
8:15 AM 28.4 °F 19.7 °F 17.6 °F 64% 30.20 in 10.0 mi SW 9.2 mph - N/A   Clear
8:35 AM 28.4 °F 18.5 °F 19.4 °F 69% 30.20 in 10.0 mi SW 11.5 mph - N/A   Clear
8:55 AM 30.2 °F 20.8 °F 19.4 °F 64% 30.21 in 10.0 mi SW 11.5 mph - N/A   Clear
9:15 AM 32.0 °F 22.5 °F 19.4 °F 60% 30.20 in 10.0 mi SW 12.7 mph - N/A   Clear
9:35 AM 33.8 °F 25.8 °F 21.2 °F 60% 30.20 in 10.0 mi SW 10.4 mph - N/A   Clear
9:55 AM 35.6 °F 27.1 °F 19.4 °F 52% 30.21 in 10.0 mi WSW 12.7 mph - N/A   Clear
10:15 AM 37.4 °F 28.9 °F 21.2 °F 52% 30.21 in 10.0 mi WSW 13.8 mph - N/A   Clear
10:35 AM 39.2 °F 31.6 °F 21.2 °F 49% 30.21 in 10.0 mi WSW 12.7 mph 17.3 mph N/A   Clear
10:55 AM 42.8 °F 35.8 °F 23.0 °F 46% 30.20 in 10.0 mi WSW 13.8 mph - N/A   Clear
11:15 AM 46.4 °F 40.7 °F 21.2 °F 37% 30.19 in 10.0 mi SW 12.7 mph - N/A   Clear
11:35 AM 46.4 °F 40.4 °F 21.2 °F 37% 30.19 in 10.0 mi WSW 13.8 mph - N/A   Clear
11:55 AM 46.4 °F 41.1 °F 21.2 °F 37% 30.18 in 10.0 mi West 11.5 mph - N/A   Clear
12:15 PM 48.2 °F - 21.2 °F 34% 30.17 in 10.0 mi WSW 9.2 mph - N/A   Clear
12:35 PM 51.8 °F - 21.2 °F 30% 30.16 in 10.0 mi West 11.5 mph - N/A   Clear
12:55 PM 51.8 °F - 21.2 °F 30% 30.15 in 10.0 mi West 10.4 mph - N/A   Clear
1:15 PM 51.8 °F - 21.2 °F 30% 30.15 in 10.0 mi WSW 13.8 mph - N/A   Clear
1:35 PM 51.8 °F - 23.0 °F 33% 30.15 in 10.0 mi WSW 13.8 mph - N/A   Clear
1:55 PM 53.6 °F - 24.8 °F 33% 30.13 in 10.0 mi SW 12.7 mph - N/A   Clear
2:15 PM 55.4 °F - 24.8 °F 31% 30.13 in 10.0 mi WSW 11.5 mph 16.1 mph N/A   Clear
2:35 PM 55.4 °F - 24.8 °F 31% 30.12 in 10.0 mi WSW 12.7 mph - N/A   Clear
2:55 PM 55.4 °F - 24.8 °F 31% 30.12 in 10.0 mi WSW 12.7 mph - N/A   Clear
3:15 PM 57.2 °F - 24.8 °F 29% 30.12 in 10.0 mi WSW 11.5 mph - N/A   Clear
3:35 PM 57.2 °F - 24.8 °F 29% 30.12 in 10.0 mi West 9.2 mph - N/A   Clear
3:55 PM 57.2 °F - 24.8 °F 29% 30.12 in 10.0 mi WSW 8.1 mph - N/A   Clear
4:15 PM 57.2 °F - 24.8 °F 29% 30.12 in 10.0 mi SW 10.4 mph - N/A   Clear
4:35 PM 55.4 °F - 24.8 °F 31% 30.11 in 10.0 mi SW 8.1 mph - N/A   Clear
4:55 PM 51.8 °F - 24.8 °F 35% 30.12 in 10.0 mi SW 8.1 mph - N/A   Clear
5:15 PM 50.0 °F - 23.0 °F 35% 30.11 in 10.0 mi SW 6.9 mph - N/A   Clear
5:35 PM 42.8 °F 39.3 °F 21.2 °F 42% 30.11 in 10.0 mi SW 5.8 mph - N/A   Clear
5:55 PM 46.4 °F 42.4 °F 24.8 °F 43% 30.11 in 10.0 mi SW 8.1 mph - N/A   Clear
6:15 PM 42.8 °F 38.0 °F 21.2 °F 42% 30.11 in 10.0 mi SW 8.1 mph - N/A   Clear
6:35 PM 39.2 °F 33.6 °F 21.2 °F 49% 30.11 in 10.0 mi SW 8.1 mph - N/A   Clear
6:55 PM 44.6 °F 40.7 °F 23.0 °F 43% 30.11 in 10.0 mi WSW 6.9 mph - N/A   Clear
7:15 PM 42.8 °F 36.6 °F 23.0 °F 46% 30.10 in 10.0 mi SW 11.5 mph - N/A   Clear
7:35 PM 42.8 °F 38.0 °F 21.2 °F 42% 30.10 in 10.0 mi WSW 8.1 mph - N/A   Clear
7:55 PM 41.0 °F 37.1 °F 21.2 °F 45% 30.10 in 10.0 mi West 5.8 mph - N/A   Clear
8:15 PM 37.4 °F 32.8 °F 21.2 °F 52% 30.10 in 10.0 mi NW 5.8 mph - N/A   Clear
8:35 PM 33.8 °F - 19.4 °F 56% 30.10 in 10.0 mi Calm Calm - N/A   Clear
8:55 PM 35.6 °F 32.8 °F 21.2 °F 56% 30.09 in 10.0 mi WSW 3.5 mph - N/A   Clear
9:15 PM 33.8 °F 27.0 °F 21.2 °F 60% 30.09 in 10.0 mi SW 8.1 mph - N/A   Clear
9:35 PM 41.0 °F 36.4 °F 21.2 °F 45% 30.08 in 10.0 mi WSW 6.9 mph - N/A   Clear
9:55 PM 37.4 °F 30.3 °F 21.2 °F 52% 30.08 in 10.0 mi SW 10.4 mph - N/A   Clear
10:15 PM 39.2 °F 33.0 °F 23.0 °F 52% 30.07 in 10.0 mi SW 9.2 mph - N/A   Clear
10:35 PM 37.4 °F 31.4 °F 21.2 °F 52% 30.07 in 10.0 mi WSW 8.1 mph - N/A   Clear
10:55 PM 41.0 °F 34.7 °F 21.2 °F 45% 30.06 in 10.0 mi West 10.4 mph - N/A   Clear
11:15 PM 37.4 °F 32.8 °F 21.2 °F 52% 30.06 in 10.0 mi West 5.8 mph - N/A   Clear
11:35 PM 33.8 °F - 19.4 °F 56% 30.05 in 10.0 mi Calm Calm - N/A   Clear
11:55 PM 30.2 °F 25.4 °F 19.4 °F 64% 30.04 in 10.0 mi SSW 4.6 mph - N/A   Clear